Vertical_Velocity
2 -0 -1 0 -1 -1 -1 -2 -1 -0 -1 0 1 -3 0 -2 -3 -2 -1 -3 -4 -1 4 3 -2 3 -1 -3 4 0 1 -0 -1 -2 1 4 -3 3 0 -1 2 -1 -5 -2 1 2 -3
1 2 -1 0 -3 1 -1 -2 -3 -1 -0 -0 -3 -2 -0 -0 -1 -3 -0 -2 -1 0 2 1 -1 1 1 0 -1 -3 2 -2 -3 -0 -3 3 5 -2 3 -1 3 -1 -1 -5 0 0 1
0 0 -2 -2 -2 -1 -2 -1 0 0 -2 -1 -3 -0 -2 -1 -0 0 -4 -2 -3 -1 4 3 -1 1 -1 -0 1 -2 -2 -2 -4 0 -0 -2 -0 2 0 0 -1 0 -1 -2 -1 -0 1
0 1 1 -1 -1 0 -0 -0 -1 -2 -1 -3 -1 -2 2 -3 -0 -0 0 -6 0 -3 -2 3 3 -1 8 -9 0 3 -2 0 -6 1 -4 1 1 0 -3 3 0 1 0 0 1 -4 4
-1 -2 -1 -3 -3 -2 -1 -1 -1 -0 -1 -0 -3 -2 -0 1 -1 -2 -2 -1 -5 2 -0 2 6 -8 14 -1 -3 -0 1 -0 1 -10 5 2 2 -2 1 1 3 1 7 3 -5 3 -4
0 -3 5 0 -1 0 -1 -0 1 0 -1 0 -2 2 -1 4 2 -1 -2 -3 -10 -4 -2 0 3 -2 6 -2 -2 6 -6 1 -1 1 -8 1 1 -1 3 2 8 -5 -1 4 2 -1 -4
-0 -2 -3 -2 2 -1 -0 -2 -0 -3 -2 -2 -3 -2 -1 4 -1 -4 -0 -2 -1 -14 2 -0 -2 12 6 -12 2 -0 -11 2 -10 1 1 -4 -4 1 -2 -2 6 4 5 -2 6 -9 -5
0 -3 -0 -2 1 1 -0 -2 -1 0 -3 -3 -0 -3 -4 -3 2 -1 -4 -4 -5 -5 -12 -8 12 -6 16 -21 15 3 -5 -11 -1 -0 -7 -6 6 10 -11 -1 -5 5 2 5 2 1 -9
-0 -1 3 0 1 -4 -5 -2 1 1 -1 -3 -1 -4 -6 -10 -5 -6 -0 -1 3 -1 -29 19 8 -2 2 -5 1 21 -3 -4 6 -1 -2 -13 12 17 -10 -0 0 3 -2 5 -2 -8 5
4 0 -5 -0 -1 1 -2 -4 -5 -4 -2 -3 -3 -2 -0 -0 -8 -3 -8 -1 -2 2 -31 -4 -2 -1 1 6 -5 11 3 -7 -2 -0 7 -23 14 2 8 -3 -5 4 -2 -2 -1 -3 4
3 8 6 4 2 10 10 4 -2 -2 -0 -2 -1 -1 -6 5 -3 4 -7 -2 0 -2 -40 -2 -3 -4 -1 4 -2 6 10 -3 -10 5 2 10 -2 4 -5 13 -10 8 -9 11 -2 -5 -10
11 6 5 1 5 8 13 4 7 1 8 -2 -2 2 1 -7 -3 -2 3 -4 6 1 -42 -10 0 4 6 3 -2 0 7 3 6 -6 -4 10 -14 -5 2 9 -7 -5 3 1 0 1 -35
12 4 -1 6 6 1 -6 -1 -0 2 5 12 -2 -2 7 2 -4 2 1 6 15 -33 -9 -31 -5 7 9 1 -4 -4 -1 -1 3 -1 -7 3 -4 -3 -0 5 3 -2 -1 -4 -14 -7 -11
-1 -1 -5 2 -4 8 7 -1 -2 6 1 3 1 1 4 -1 0 10 10 10 -12 -6 10 0 -6 0 5 5 -3 -4 -6 1 2 -1 -7 -0 3 -1 8 5 -5 3 -0 2 -9 11 1
-2 1 -1 0 1 4 3 2 -0 -0 7 2 4 3 -4 11 2 7 7 3 -5 11 -1 8 9 -2 7 5 5 12 5 -2 1 -0 0 -14 -1 -0 10 3 5 23 -12 25 -5 5 -11
4 -0 -2 3 1 6 2 1 4 2 6 7 2 2 -0 1 -1 4 -0 -6 10 21 4 8 -1 0 -5 -11 -1 5 8 -2 -12 -7 5 -26 -21 8 0 5 3 -2 -1 3 13 -16 -1
-1 5 -1 -1 6 1 2 0 5 4 5 1 6 4 2 -2 8 -12 -33 0 -0 1 7 3 4 -4 -3 -4 -4 2 -1 -12 5 -2 -3 -7 -10 13 -6 10 14 -2 -2 1 16 -12 5
-1 3 -0 -3 9 3 0 4 6 4 3 0 0 -6 12 -1 10 3 -42 10 13 10 6 -2 -3 2 -6 1 5 -3 3 -0 4 1 -3 -3 -12 -10 0 13 4 8 -10 12 6 -11 -2
3 -0 3 3 1 -1 -6 -1 8 8 3 11 -1 -3 9 15 -11 1 -3 -5 -3 3 15 1 -6 3 0 1 -4 5 1 2 0 7 -5 -4 -9 -18 -6 24 6 -14 8 5 1 11 -30
4 8 8 7 7 9 4 4 2 10 5 9 5 1 -5 10 1 6 13 -2 -9 6 -0 6 -2 -1 1 0 16 -21 6 4 5 10 -3 8 1 -2 -9 4 5 1 1 -3 8 4 -2
-6 -4 3 -1 0 3 6 6 9 12 8 7 -0 -7 -3 -11 4 -4 8 3 -0 3 1 9 -5 4 4 -5 -3 -3 6 9 -3 8 -4 5 -19 13 2 1 4 4 0 -3 2 3 1
0 4 -1 -6 1 -2 -4 -0 7 4 8 5 10 -4 6 7 2 1 6 13 4 7 -9 3 -8 6 6 -7 1 3 -2 -1 -5 -3 6 14 -22 3 -12 4 2 -3 -10 0 8 7 3
2 6 3 -1 -2 3 2 2 -7 4 -5 2 5 10 4 14 -2 5 -3 4 20 8 3 5 -0 -0 1 2 -6 -0 -5 1 -4 -5 8 -1 2 -3 -23 13 9 -19 -8 10 2 3 7
3 3 6 2 1 -1 0 2 3 3 2 -4 2 3 -2 -4 3 7 0 4 9 0 2 7 7 1 3 2 -2 1 -4 -3 -6 4 4 -3 5 10 -16 9 -10 -10 -1 -6 -0 -1 7
2 0 3 3 3 1 1 -0 0 -1 4 4 8 -1 1 -4 4 2 -0 25 -1 3 9 8 4 7 5 -3 -2 8 -2 -9 2 -6 5 -2 6 -2 -5 6 -6 -27 13 -4 12 -15 8
0 2 2 3 3 7 4 3 2 -0 2 -0 2 -0 0 4 4 1 6 5 -5 2 -3 -7 2 -1 2 6 3 -1 -7 5 -2 -5 6 5 -0 4 1 -7 -14 17 -7 10 6 -29 -6
1 0 1 0 4 1 3 -2 -1 -1 -2 -2 1 -1 -4 -3 4 4 7 7 10 9 -2 4 11 1 5 4 1 -0 -7 8 -10 -4 2 3 4 1 1 8 19 22 0 -0 1 -7 7
1 2 0 0 -0 1 -2 8 40 1 -4 1 5 -4 0 -2 -2 0 0 -2 -6 -2 1 5 11 -8 4 25 16 14 -6 -1 -6 8 0 -3 -4 0 -0 -3 -5 7 3 6 5 1 11
3 2 2 1 0 -1 1 -2 10 -11 21 3 -2 2 -3 -7 -1 -0 -5 0 9 4 -5 2 -3 7 -0 14 15 -11 -4 11 15 1 1 0 -5 1 0 14 4 -4 -2 -1 1 16 5
Height
5804 5804 5804 5804 5805 5805 5805 5804 5803 5805 5806 5806 5805 5808 5807 5806 5807 5808 5808 5807 5807 5807 5807 5808 5809 5810 5811 5810 5807 5806 5805 5805 5808 5803 5802 5802 5799 5798 5798 5797 5796 5796 5795 5795 5797 5798 5796
5792 5792 5793 5793 5793 5793 5793 5794 5794 5794 5796 5795 5796 5797 5799 5798 5798 5800 5800 5799 5799 5798 5799 5799 5799 5801 5803 5803 5800 5800 5799 5800 5801 5800 5796 5796 5796 5792 5791 5793 5792 5791 5791 5791 5793 5794 5792
5779 5780 5780 5781 5781 5781 5782 5783 5783 5784 5785 5786 5787 5788 5789 5789 5791 5792 5791 5791 5790 5791 5792 5792 5791 5791 5796 5793 5794 5792 5793 5794 5793 5793 5793 5790 5790 5790 5786 5787 5787 5787 5787 5786 5788 5789 5790
5767 5768 5768 5770 5769 5770 5770 5772 5772 5773 5773 5776 5775 5778 5781 5781 5782 5783 5784 5783 5784 5784 5783 5784 5784 5783 5788 5785 5785 5785 5785 5789 5788 5787 5786 5786 5784 5784 5783 5781 5781 5781 5781 5782 5783 5784 5784
5755 5757 5758 5758 5759 5759 5760 5761 5761 5761 5761 5764 5765 5767 5770 5772 5772 5773 5774 5774 5774 5773 5776 5776 5775 5775 5778 5778 5778 5776 5777 5780 5783 5780 5779 5779 5779 5778 5779 5775 5774 5775 5776 5777 5777 5777 5777
5741 5743 5745 5745 5746 5746 5747 5748 5750 5750 5751 5751 5754 5755 5759 5761 5762 5763 5764 5764 5764 5766 5767 5768 5767 5768 5769 5769 5770 5771 5768 5772 5773 5775 5775 5772 5773 5773 5773 5768 5769 5767 5769 5770 5770 5770 5770
5727 5729 5729 5730 5732 5733 5735 5738 5737 5740 5740 5740 5742 5743 5746 5749 5751 5753 5754 5754 5755 5755 5758 5760 5758 5759 5757 5759 5757 5764 5765 5762 5767 5766 5767 5763 5765 5768 5764 5761 5761 5762 5761 5762 5764 5761 5761
5711 5711 5714 5715 5716 5719 5721 5723 5724 5725 5727 5728 5730 5732 5733 5734 5738 5742 5742 5742 5743 5743 5747 5748 5749 5747 5751 5747 5750 5752 5757 5753 5756 5759 5757 5757 5755 5759 5756 5755 5754 5754 5754 5754 5755 5753 5751
5693 5694 5697 5699 5701 5702 5703 5705 5708 5710 5712 5714 5714 5717 5718 5723 5725 5728 5729 5732 5733 5733 5733 5737 5740 5738 5736 5737 5741 5745 5742 5744 5746 5748 5749 5748 5747 5748 5748 5747 5747 5747 5746 5745 5744 5742 5742
5677 5678 5680 5682 5685 5686 5685 5687 5690 5693 5694 5698 5701 5702 5703 5706 5710 5711 5714 5717 5721 5721 5720 5725 5721 5726 5726 5726 5728 5731 5731 5734 5735 5735 5735 5735 5738 5737 5737 5737 5739 5736 5735 5736 5733 5733 5733
5660 5663 5665 5667 5669 5672 5673 5675 5675 5678 5681 5683 5686 5684 5688 5692 5696 5699 5700 5702 5705 5707 5706 5710 5709 5710 5710 5716 5716 5719 5718 5717 5721 5723 5725 5727 5725 5725 5725 5727 5724 5725 5722 5723 5723 5722 5722
5642 5645 5647 5651 5655 5658 5659 5660 5661 5664 5666 5668 5671 5672 5675 5677 5682 5687 5687 5688 5690 5692 5691 5695 5698 5699 5697 5698 5701 5704 5706 5706 5708 5708 5711 5712 5712 5712 5715 5715 5713 5712 5711 5710 5711 5711 5708
5625 5626 5630 5634 5638 5640 5641 5645 5647 5649 5653 5654 5655 5659 5662 5663 5666 5670 5672 5675 5677 5674 5681 5683 5685 5687 5688 5687 5688 5690 5692 5693 5694 5696 5698 5699 5700 5700 5699 5701 5701 5702 5701 5699 5698 5696 5699
5606 5609 5612 5615 5619 5622 5623 5624 5626 5630 5634 5635 5636 5639 5641 5647 5650 5656 5657 5659 5656 5666 5667 5669 5672 5673 5674 5676 5676 5675 5675 5678 5678 5678 5680 5683 5686 5686 5687 5688 5687 5688 5687 5686 5681 5685 5687
5581 5587 5591 5595 5598 5602 5603 5605 5609 5612 5615 5616 5618 5621 5626 5626 5630 5636 5640 5638 5645 5650 5653 5653 5653 5655 5660 5661 5662 5662 5661 5661 5663 5666 5667 5668 5672 5671 5673 5675 5675 5677 5671 5674 5665 5670 5665
5559 5562 5565 5569 5574 5578 5582 5586 5590 5593 5596 5598 5598 5600 5609 5609 5612 5613 5618 5626 5629 5632 5636 5639 5637 5638 5642 5644 5645 5647 5646 5644 5646 5649 5651 5652 5657 5660 5660 5659 5659 5661 5660 5657 5655 5652 5650
5530 5536 5538 5545 5550 5553 5557 5561 5567 5571 5572 5576 5579 5579 5589 5590 5590 5585 5601 5613 5613 5614 5614 5618 5619 5620 5624 5626 5629 5630 5630 5628 5631 5632 5634 5638 5641 5646 5643 5644 5645 5643 5644 5641 5640 5637 5634
5501 5508 5512 5519 5524 5526 5531 5537 5542 5545 5548 5550 5554 5560 5571 5569 5571 5567 5582 5592 5594 5596 5595 5598 5601 5603 5607 5610 5611 5612 5615 5614 5618 5618 5618 5618 5619 5625 5628 5627 5625 5627 5629 5627 5623 5622 5620
5476 5482 5487 5493 5497 5501 5507 5515 5521 5522 5525 5527 5527 5538 5547 5549 5549 5553 5562 5571 5571 5576 5577 5579 5582 5584 5588 5593 5591 5596 5599 5600 5603 5602 5604 5604 5604 5607 5614 5615 5609 5611 5612 5611 5608 5603 5606
5452 5459 5463 5468 5473 5479 5485 5492 5499 5502 5505 5507 5509 5513 5523 5524 5531 5538 5545 5548 5552 5558 5557 5561 5565 5567 5570 5574 5575 5579 5584 5584 5587 5588 5590 5588 5589 5592 5596 5598 5595 5595 5595 5597 5595 5592 5590
5438 5441 5445 5450 5455 5459 5464 5471 5478 5482 5486 5490 5491 5496 5506 5509 5517 5520 5527 5530 5535 5539 5542 5544 5547 5552 5554 5555 5558 5561 5567 5570 5570 5574 5574 5573 5572 5577 5579 5580 5581 5582 5580 5584 5582 5581 5576
5424 5428 5431 5435 5440 5445 5450 5454 5461 5466 5469 5473 5480 5483 5491 5498 5503 5507 5513 5516 5521 5526 5525 5531 5533 5538 5539 5540 5546 5548 5549 5554 5558 5561 5564 5561 5560 5563 5566 5566 5565 5564 5567 5571 5570 5570 5567
5412 5416 5419 5423 5427 5432 5437 5442 5447 5450 5456 5461 5468 5472 5477 5483 5488 5493 5499 5505 5508 5512 5515 5519 5521 5524 5528 5532 5531 5535 5536 5541 5547 5548 5549 5548 5547 5549 5549 5553 5548 5544 5561 5555 5555 5555 5553
5399 5404 5409 5412 5416 5421 5425 5429 5435 5438 5444 5449 5456 5460 5463 5471 5477 5481 5486 5493 5497 5500 5505 5508 5511 5514 5518 5518 5520 5523 5526 5529 5532 5538 5536 5537 5536 5535 5534 5537 5530 5542 5545 5542 5542 5545 5542
5387 5392 5398 5403 5408 5412 5416 5419 5423 5428 5434 5438 5442 5447 5452 5460 5466 5470 5476 5479 5484 5489 5493 5496 5501 5505 5506 5510 5513 5515 5517 5519 5525 5526 5525 5525 5526 5523 5522 5524 5523 5527 5533 5530 5529 5531 5531
5377 5381 5387 5393 5399 5405 5409 5412 5416 5420 5424 5428 5433 5437 5442 5448 5455 5461 5463 5466 5471 5475 5480 5488 5491 5495 5498 5501 5504 5505 5509 5512 5513 5514 5515 5515 5515 5514 5515 5514 5513 5521 5518 5519 5517 5519 5519
5367 5372 5377 5383 5390 5396 5401 5406 5410 5414 5417 5421 5425 5429 5433 5438 5445 5449 5452 5455 5459 5465 5470 5477 5483 5486 5490 5494 5495 5498 5501 5502 5503 5505 5507 5506 5506 5506 5507 5505 5506 5508 5511 5510 5509 5513 5510
5359 5364 5369 5374 5380 5387 5393 5398 5404 5406 5411 5415 5419 5422 5426 5429 5434 5438 5441 5446 5449 5454 5459 5467 5474 5475 5481 5486 5487 5489 5492 5493 5493 5497 5498 5499 5499 5500 5499 5499 5501 5501 5501 5501 5500 5501 5500
5350 5356 5361 5367 5372 5378 5385 5391 5396 5401 5404 5407 5411 5415 5418 5422 5427 5429 5432 5435 5439 5443 5448 5453 5462 5466 5470 5472 5474 5479 5483 5485 5486 5488 5491 5492 5492 5492 5493 5492 5491 5491 5491 5491 5491 5494 5494